Tracking 35274 objects as of 10-Sep-2026
HD Live streaming from Space Station
objects crossing your sky now

D5B (CASTOR)


D5B (CASTOR) is no longer on orbit


NORAD ID: 7802
Int'l Code: 1975-039B
Launch date: May 17, 1975
Source: France (FR)
Launch site: FRENCH GUIANA (FRGUI)
Decay date: 1979-02-18
Your satellite tracking list
Your tracking list is empty




NASA's NSSDC Master Catalog

Two Line Element Set (TLE):
1 07802U 75039  B 79043.84672902  .01220847 +00000-0 +00000-0 0  9996
2 07802 029.9263 089.4622 0075580 239.4754 131.2973 16.08854092202272
Source of the keplerian elements: AFSPC